owner,sensor,date,latitude,longitude,vertical_datum,sea_water_practical_salinity,qcFlag 
SCCF RECON,ioos:station:SCCF:11:1,2011-09-01T00:00:00Z,26.4679,-82.0631,1.71,28.95,1111122 
SCCF RECON,ioos:station:SCCF:11:1,2011-09-01T01:00:00Z,26.4679,-82.0631,1.616,28.95,1111122 
SCCF RECON,ioos:station:SCCF:11:1,2011-09-01T02:00:00Z,26.4679,-82.0631,1.559,29.05,1111122 
SCCF RECON,ioos:station:SCCF:11:1,2011-09-01T03:00:00Z,26.4679,-82.0631,1.61,28.94,1111122 
SCCF RECON,ioos:station:SCCF:11:1,2011-09-01T04:00:00Z,26.4679,-82.0631,1.8,29.05,1111122 
SCCF RECON,ioos:station:SCCF:11:1,2011-09-01T05:00:00Z,26.4679,-82.0631,2.0,29.0,1111122 
SCCF RECON,ioos:station:SCCF:11:1,2011-09-01T06:00:00Z,26.4679,-82.0631,2.1,29.09,1111122 
SCCF RECON,ioos:station:SCCF:11:1,2011-09-01T07:00:00Z,26.4679,-82.0631,2.15,29.4,1111122 
SCCF RECON,ioos:station:SCCF:11:1,2011-09-01T08:00:00Z,26.4679,-82.0631,2.153,29.46,1111122 
SCCF RECON,ioos:station:SCCF:11:1,2011-09-01T09:00:00Z,26.4679,-82.0631,2.064,29.02,1111122 
SCCF RECON,ioos:station:SCCF:11:1,2011-09-01T10:00:00Z,26.4679,-82.0631,1.93,29.01,1111122 
SCCF RECON,ioos:station:SCCF:11:1,2011-09-01T11:00:00Z,26.4679,-82.0631,1.771,28.97,1111122 
SCCF RECON,ioos:station:SCCF:11:1,2011-09-01T12:00:00Z,26.4679,-82.0631,1.633,28.95,1111122 
SCCF RECON,ioos:station:SCCF:11:1,2011-09-01T13:00:00Z,26.4679,-82.0631,1.507,28.96,1111122 
SCCF RECON,ioos:station:SCCF:11:1,2011-09-01T14:00:00Z,26.4679,-82.0631,1.42,28.97,1111122 
SCCF RECON,ioos:station:SCCF:11:1,2011-09-01T15:00:00Z,26.4679,-82.0631,1.41,28.98,1111122 
SCCF RECON,ioos:station:SCCF:11:1,2011-09-01T16:00:00Z,26.4679,-82.0631,1.51,29.03,1111122 
SCCF RECON,ioos:station:SCCF:11:1,2011-09-01T17:00:00Z,26.4679,-82.0631,1.67,28.68,1111122 
SCCF RECON,ioos:station:SCCF:11:1,2011-09-01T18:00:00Z,26.4679,-82.0631,1.81,27.65,1111122 
SCCF RECON,ioos:station:SCCF:11:1,2011-09-01T19:00:00Z,26.4679,-82.0631,1.91,27.67,1111122 
SCCF RECON,ioos:station:SCCF:11:1,2011-09-01T20:00:00Z,26.4679,-82.0631,1.989,27.12,1111122 
SCCF RECON,ioos:station:SCCF:11:1,2011-09-01T21:00:00Z,26.4679,-82.0631,2.03,28.35,1111122 
SCCF RECON,ioos:station:SCCF:11:1,2011-09-01T22:00:00Z,26.4679,-82.0631,1.998,29.13,1111122 
SCCF RECON,ioos:station:SCCF:11:1,2011-09-01T23:00:00Z,26.4679,-82.0631,1.925,28.69,1111122 
SCCF RECON,ioos:station:SCCF:11:1,2011-09-02T00:00:00Z,26.4679,-82.0631,1.779,28.12,1111122 
SCCF RECON,ioos:station:SCCF:11:1,2011-09-02T01:00:00Z,26.4679,-82.0631,1.71,28.36,1111122 
SCCF RECON,ioos:station:SCCF:11:1,2011-09-02T02:00:00Z,26.4679,-82.0631,1.67,28.53,1111122 
SCCF RECON,ioos:station:SCCF:11:1,2011-09-02T03:00:00Z,26.4679,-82.0631,1.64,28.54,1111122 
SCCF RECON,ioos:station:SCCF:11:1,2011-09-02T04:00:00Z,26.4679,-82.0631,1.72,28.33,1111122 
SCCF RECON,ioos:station:SCCF:11:1,2011-09-02T05:00:00Z,26.4679,-82.0631,1.88,28.46,1111122 
SCCF RECON,ioos:station:SCCF:11:1,2011-09-02T06:00:00Z,26.4679,-82.0631,2.03,28.53,1111122 
SCCF RECON,ioos:station:SCCF:11:1,2011-09-02T07:00:00Z,26.4679,-82.0631,2.12,29.51,1111122 
SCCF RECON,ioos:station:SCCF:11:1,2011-09-02T08:00:00Z,26.4679,-82.0631,2.163,29.9,1111122 
SCCF RECON,ioos:station:SCCF:11:1,2011-09-02T09:00:00Z,26.4679,-82.0631,2.15,29.9,1111122 
SCCF RECON,ioos:station:SCCF:11:1,2011-09-02T10:00:00Z,26.4679,-82.0631,2.077,28.73,1111122 
SCCF RECON,ioos:station:SCCF:11:1,2011-09-02T11:00:00Z,26.4679,-82.0631,1.917,28.42,1111122 
SCCF RECON,ioos:station:SCCF:11:1,2011-09-02T12:00:00Z,26.4679,-82.0631,1.772,28.48,1111122 
SCCF RECON,ioos:station:SCCF:11:1,2011-09-02T13:00:00Z,26.4679,-82.0631,1.641,28.51,1111122 
SCCF RECON,ioos:station:SCCF:11:1,2011-09-02T14:00:00Z,26.4679,-82.0631,1.52,28.59,1111122 
SCCF RECON,ioos:station:SCCF:11:1,2011-09-02T15:00:00Z,26.4679,-82.0631,1.432,28.63,1111122 
SCCF RECON,ioos:station:SCCF:11:1,2011-09-02T16:00:00Z,26.4679,-82.0631,1.414,28.63,1111122 
SCCF RECON,ioos:station:SCCF:11:1,2011-09-02T17:00:00Z,26.4679,-82.0631,1.531,28.61,1111122 
SCCF RECON,ioos:station:SCCF:11:1,2011-09-02T18:00:00Z,26.4679,-82.0631,1.705,28.02,1111122 
SCCF RECON,ioos:station:SCCF:11:1,2011-09-02T19:00:00Z,26.4679,-82.0631,1.817,27.88,1111122 
SCCF RECON,ioos:station:SCCF:11:1,2011-09-02T20:00:00Z,26.4679,-82.0631,1.888,27.86,1111122 
SCCF RECON,ioos:station:SCCF:11:1,2011-09-02T21:00:00Z,26.4679,-82.0631,1.95,27.76,1111122 
SCCF RECON,ioos:station:SCCF:11:1,2011-09-02T22:00:00Z,26.4679,-82.0631,2.0,28.37,1111122 
SCCF RECON,ioos:station:SCCF:11:1,2011-09-02T23:00:00Z,26.4679,-82.0631,1.97,28.15,1111122 
SCCF RECON,ioos:station:SCCF:11:1,2011-09-03T00:00:00Z,26.4679,-82.0631,1.919,28.82,1111122 
SCCF RECON,ioos:station:SCCF:11:1,2011-09-03T01:00:00Z,26.4679,-82.0631,1.86,27.94,1111122 
SCCF RECON,ioos:station:SCCF:11:1,2011-09-03T02:00:00Z,26.4679,-82.0631,1.86,28.43,1111122 
SCCF RECON,ioos:station:SCCF:11:1,2011-09-03T03:00:00Z,26.4679,-82.0631,1.81,27.99,1111122 
SCCF RECON,ioos:station:SCCF:11:1,2011-09-03T04:00:00Z,26.4679,-82.0631,1.82,28.18,1111122 
SCCF RECON,ioos:station:SCCF:11:1,2011-09-03T05:00:00Z,26.4679,-82.0631,1.91,29.35,1111122 
SCCF RECON,ioos:station:SCCF:11:1,2011-09-03T06:00:00Z,26.4679,-82.0631,2.04,29.21,1111122 
SCCF RECON,ioos:station:SCCF:11:1,2011-09-03T07:00:00Z,26.4679,-82.0631,2.119,28.92,1111122 
SCCF RECON,ioos:station:SCCF:11:1,2011-09-03T08:00:00Z,26.4679,-82.0631,2.16,30.16,1111122 
SCCF RECON,ioos:station:SCCF:11:1,2011-09-03T09:00:00Z,26.4679,-82.0631,2.135,30.88,1111122 
SCCF RECON,ioos:station:SCCF:11:1,2011-09-03T10:00:00Z,26.4679,-82.0631,2.1,31.08,1111122 
SCCF RECON,ioos:station:SCCF:11:1,2011-09-03T11:00:00Z,26.4679,-82.0631,2.02,29.21,1111122 
SCCF RECON,ioos:station:SCCF:11:1,2011-09-03T12:00:00Z,26.4679,-82.0631,1.89,28.84,1111122 
SCCF RECON,ioos:station:SCCF:11:1,2011-09-03T13:00:00Z,26.4679,-82.0631,1.781,28.79,1111122 
SCCF RECON,ioos:station:SCCF:11:1,2011-09-03T14:00:00Z,26.4679,-82.0631,1.66,28.8,1111122 
SCCF RECON,ioos:station:SCCF:11:1,2011-09-03T15:00:00Z,26.4679,-82.0631,1.52,28.8,1111122 
SCCF RECON,ioos:station:SCCF:11:1,2011-09-03T16:00:00Z,26.4679,-82.0631,1.421,28.8,1111122 
SCCF RECON,ioos:station:SCCF:11:1,2011-09-03T17:00:00Z,26.4679,-82.0631,1.42,28.67,1111122 
SCCF RECON,ioos:station:SCCF:11:1,2011-09-03T18:00:00Z,26.4679,-82.0631,1.513,29.57,1111122 
SCCF RECON,ioos:station:SCCF:11:1,2011-09-03T19:00:00Z,26.4679,-82.0631,1.62,30.1,1111122 
SCCF RECON,ioos:station:SCCF:11:1,2011-09-03T20:00:00Z,26.4679,-82.0631,1.72,28.96,1111122 
SCCF RECON,ioos:station:SCCF:11:1,2011-09-03T21:00:00Z,26.4679,-82.0631,1.8,28.47,1111122 
SCCF RECON,ioos:station:SCCF:11:1,2011-09-03T22:00:00Z,26.4679,-82.0631,1.865,29.2,1111122 
SCCF RECON,ioos:station:SCCF:11:1,2011-09-03T23:00:00Z,26.4679,-82.0631,1.88,29.76,1111122 
SCCF RECON,ioos:station:SCCF:11:1,2011-09-04T00:00:00Z,26.4679,-82.0631,1.88,30.1,1111122 
SCCF RECON,ioos:station:SCCF:11:1,2011-09-04T01:00:00Z,26.4679,-82.0631,1.86,30.18,1111122 
SCCF RECON,ioos:station:SCCF:11:1,2011-09-04T02:00:00Z,26.4679,-82.0631,1.84,30.09,1111122 
SCCF RECON,ioos:station:SCCF:11:1,2011-09-04T03:00:00Z,26.4679,-82.0631,1.84,30.13,1111122 
SCCF RECON,ioos:station:SCCF:11:1,2011-09-04T04:00:00Z,26.4679,-82.0631,1.82,30.13,1111122 
SCCF RECON,ioos:station:SCCF:11:1,2011-09-04T05:00:00Z,26.4679,-82.0631,1.85,29.92,1111122 
SCCF RECON,ioos:station:SCCF:11:1,2011-09-04T06:00:00Z,26.4679,-82.0631,1.92,30.91,1111122 
SCCF RECON,ioos:station:SCCF:11:1,2011-09-04T07:00:00Z,26.4679,-82.0631,2.03,31.24,1111122 
SCCF RECON,ioos:station:SCCF:11:1,2011-09-04T08:00:00Z,26.4679,-82.0631,2.09,31.66,1111122 
SCCF RECON,ioos:station:SCCF:11:1,2011-09-04T09:00:00Z,26.4679,-82.0631,2.15,32.6,1111122 
SCCF RECON,ioos:station:SCCF:11:1,2011-09-04T10:00:00Z,26.4679,-82.0631,2.18,32.84,1111122 
SCCF RECON,ioos:station:SCCF:11:1,2011-09-04T11:00:00Z,26.4679,-82.0631,2.17,32.81,1111122 
SCCF RECON,ioos:station:SCCF:11:1,2011-09-04T12:00:00Z,26.4679,-82.0631,2.11,32.48,1111122 
SCCF RECON,ioos:station:SCCF:11:1,2011-09-04T13:00:00Z,26.4679,-82.0631,2.0,30.17,1111122 
SCCF RECON,ioos:station:SCCF:11:1,2011-09-04T14:00:00Z,26.4679,-82.0631,1.868,29.81,1111122 
SCCF RECON,ioos:station:SCCF:11:1,2011-09-04T15:00:00Z,26.4679,-82.0631,1.74,29.75,1111122 
SCCF RECON,ioos:station:SCCF:11:1,2011-09-04T16:00:00Z,26.4679,-82.0631,1.63,29.57,1111122 
SCCF RECON,ioos:station:SCCF:11:1,2011-09-04T17:00:00Z,26.4679,-82.0631,1.54,29.49,1111122 
SCCF RECON,ioos:station:SCCF:11:1,2011-09-04T18:00:00Z,26.4679,-82.0631,1.531,29.6,1111122 
SCCF RECON,ioos:station:SCCF:11:1,2011-09-04T19:00:00Z,26.4679,-82.0631,1.596,30.68,1111122 
SCCF RECON,ioos:station:SCCF:11:1,2011-09-04T20:00:00Z,26.4679,-82.0631,1.691,32.01,1111122 
SCCF RECON,ioos:station:SCCF:11:1,2011-09-04T21:00:00Z,26.4679,-82.0631,1.77,31.75,1111122 
SCCF RECON,ioos:station:SCCF:11:1,2011-09-04T22:00:00Z,26.4679,-82.0631,1.829,32.03,1111122 
SCCF RECON,ioos:station:SCCF:11:1,2011-09-04T23:00:00Z,26.4679,-82.0631,1.874,32.13,1111122 
SCCF RECON,ioos:station:SCCF:11:1,2011-09-05T00:00:00Z,26.4679,-82.0631,1.918,32.23,1111122 
SCCF RECON,ioos:station:SCCF:11:1,2011-09-05T01:00:00Z,26.4679,-82.0631,1.92,32.17,1111122 
SCCF RECON,ioos:station:SCCF:11:1,2011-09-05T02:00:00Z,26.4679,-82.0631,1.94,32.21,1111122 
SCCF RECON,ioos:station:SCCF:11:1,2011-09-05T03:00:00Z,26.4679,-82.0631,1.91,31.89,1111122 
SCCF RECON,ioos:station:SCCF:11:1,2011-09-05T04:00:00Z,26.4679,-82.0631,1.92,32.17,1111122 
SCCF RECON,ioos:station:SCCF:11:1,2011-09-05T05:00:00Z,26.4679,-82.0631,1.94,33.5,1111122 
SCCF RECON,ioos:station:SCCF:11:1,2011-09-05T06:00:00Z,26.4679,-82.0631,1.93,33.47,1111122 
SCCF RECON,ioos:station:SCCF:11:1,2011-09-05T07:00:00Z,26.4679,-82.0631,1.94,32.8,1111122 
SCCF RECON,ioos:station:SCCF:11:1,2011-09-05T08:00:00Z,26.4679,-82.0631,2.01,33.63,1111122 
SCCF RECON,ioos:station:SCCF:11:1,2011-09-05T09:00:00Z,26.4679,-82.0631,2.107,33.67,1111122 
SCCF RECON,ioos:station:SCCF:11:1,2011-09-05T10:00:00Z,26.4679,-82.0631,2.148,33.76,1111122 
SCCF RECON,ioos:station:SCCF:11:1,2011-09-05T11:00:00Z,26.4679,-82.0631,2.179,33.78,1111122 
SCCF RECON,ioos:station:SCCF:11:1,2011-09-05T12:00:00Z,26.4679,-82.0631,2.188,33.8,1111122 
SCCF RECON,ioos:station:SCCF:11:1,2011-09-05T13:00:00Z,26.4679,-82.0631,2.15,33.78,1111122 
SCCF RECON,ioos:station:SCCF:11:1,2011-09-05T14:00:00Z,26.4679,-82.0631,2.043,31.8,1111122 
SCCF RECON,ioos:station:SCCF:11:1,2011-09-05T15:00:00Z,26.4679,-82.0631,1.93,31.24,1111122 
SCCF RECON,ioos:station:SCCF:11:1,2011-09-05T16:00:00Z,26.4679,-82.0631,1.83,31.21,1111122 
SCCF RECON,ioos:station:SCCF:11:1,2011-09-05T17:00:00Z,26.4679,-82.0631,1.69,31.1,1111122 
SCCF RECON,ioos:station:SCCF:11:1,2011-09-05T18:00:00Z,26.4679,-82.0631,1.594,30.61,1111122 
SCCF RECON,ioos:station:SCCF:11:1,2011-09-05T19:00:00Z,26.4679,-82.0631,1.57,30.61,1111122 
SCCF RECON,ioos:station:SCCF:11:1,2011-09-05T20:00:00Z,26.4679,-82.0631,1.59,31.76,1111122 
SCCF RECON,ioos:station:SCCF:11:1,2011-09-05T21:00:00Z,26.4679,-82.0631,1.65,33.37,1111122 
SCCF RECON,ioos:station:SCCF:11:1,2011-09-05T22:00:00Z,26.4679,-82.0631,1.73,33.82,1111122 
SCCF RECON,ioos:station:SCCF:11:1,2011-09-05T23:00:00Z,26.4679,-82.0631,1.82,33.9,1111122 
SCCF RECON,ioos:station:SCCF:11:1,2011-09-06T00:00:00Z,26.4679,-82.0631,1.9,34.1,1111122 
SCCF RECON,ioos:station:SCCF:11:1,2011-09-06T01:00:00Z,26.4679,-82.0631,1.96,34.05,1111122 
SCCF RECON,ioos:station:SCCF:11:1,2011-09-06T02:00:00Z,26.4679,-82.0631,1.991,34.08,1111122 
SCCF RECON,ioos:station:SCCF:11:1,2011-09-06T03:00:00Z,26.4679,-82.0631,2.01,34.18,1111122 
SCCF RECON,ioos:station:SCCF:11:1,2011-09-06T04:00:00Z,26.4679,-82.0631,2.017,34.33,1111122 
SCCF RECON,ioos:station:SCCF:11:1,2011-09-06T05:00:00Z,26.4679,-82.0631,1.98,34.4,1111122 
SCCF RECON,ioos:station:SCCF:11:1,2011-09-06T06:00:00Z,26.4679,-82.0631,1.974,33.02,1111122 
SCCF RECON,ioos:station:SCCF:11:1,2011-09-06T07:00:00Z,26.4679,-82.0631,1.967,34.47,1111122 
SCCF RECON,ioos:station:SCCF:11:1,2011-09-06T08:00:00Z,26.4679,-82.0631,1.99,34.44,1111122 
SCCF RECON,ioos:station:SCCF:11:1,2011-09-06T09:00:00Z,26.4679,-82.0631,2.08,34.94,1111122 
SCCF RECON,ioos:station:SCCF:11:1,2011-09-06T10:00:00Z,26.4679,-82.0631,2.182,34.97,1111122 
SCCF RECON,ioos:station:SCCF:11:1,2011-09-06T11:00:00Z,26.4679,-82.0631,2.23,35.02,1111122 
SCCF RECON,ioos:station:SCCF:11:1,2011-09-06T12:00:00Z,26.4679,-82.0631,2.261,35.02,1111122 
SCCF RECON,ioos:station:SCCF:11:1,2011-09-06T13:00:00Z,26.4679,-82.0631,2.278,34.99,1111122 
SCCF RECON,ioos:station:SCCF:11:1,2011-09-06T14:00:00Z,26.4679,-82.0631,2.23,35.08,1111122 
SCCF RECON,ioos:station:SCCF:11:1,2011-09-06T15:00:00Z,26.4679,-82.0631,2.155,33.68,1111122 
SCCF RECON,ioos:station:SCCF:11:1,2011-09-06T16:00:00Z,26.4679,-82.0631,2.042,32.67,1111122 
SCCF RECON,ioos:station:SCCF:11:1,2011-09-06T17:00:00Z,26.4679,-82.0631,1.94,32.68,1111122 
SCCF RECON,ioos:station:SCCF:11:1,2011-09-06T18:00:00Z,26.4679,-82.0631,1.857,32.56,1111122 
SCCF RECON,ioos:station:SCCF:11:1,2011-09-06T19:00:00Z,26.4679,-82.0631,1.726,32.14,1111122 
SCCF RECON,ioos:station:SCCF:11:1,2011-09-06T20:00:00Z,26.4679,-82.0631,1.64,31.39,1111122 
SCCF RECON,ioos:station:SCCF:11:1,2011-09-06T21:00:00Z,26.4679,-82.0631,1.56,31.07,1111122 
SCCF RECON,ioos:station:SCCF:11:1,2011-09-06T22:00:00Z,26.4679,-82.0631,1.58,31.54,1111122 
SCCF RECON,ioos:station:SCCF:11:1,2011-09-06T23:00:00Z,26.4679,-82.0631,1.62,31.76,1111122 
SCCF RECON,ioos:station:SCCF:11:1,2011-09-07T00:00:00Z,26.4679,-82.0631,1.68,34.04,1111122 
SCCF RECON,ioos:station:SCCF:11:1,2011-09-07T01:00:00Z,26.4679,-82.0631,1.81,32.22,1111122 
SCCF RECON,ioos:station:SCCF:11:1,2011-09-07T02:00:00Z,26.4679,-82.0631,1.896,32.31,1111122 
SCCF RECON,ioos:station:SCCF:11:1,2011-09-07T03:00:00Z,26.4679,-82.0631,1.96,31.73,1111122 
SCCF RECON,ioos:station:SCCF:11:1,2011-09-07T04:00:00Z,26.4679,-82.0631,1.978,32.41,1111122 
SCCF RECON,ioos:station:SCCF:11:1,2011-09-07T05:00:00Z,26.4679,-82.0631,1.96,33.04,1111122 
SCCF RECON,ioos:station:SCCF:11:1,2011-09-07T06:00:00Z,26.4679,-82.0631,1.87,31.69,1111122 
SCCF RECON,ioos:station:SCCF:11:1,2011-09-07T07:00:00Z,26.4679,-82.0631,1.878,32.45,1111122 
SCCF RECON,ioos:station:SCCF:11:1,2011-09-07T08:00:00Z,26.4679,-82.0631,1.87,32.41,1111122 
SCCF RECON,ioos:station:SCCF:11:1,2011-09-07T09:00:00Z,26.4679,-82.0631,1.934,33.64,1111122 
SCCF RECON,ioos:station:SCCF:11:1,2011-09-07T10:00:00Z,26.4679,-82.0631,1.932,32.45,1111122 
SCCF RECON,ioos:station:SCCF:11:1,2011-09-07T11:00:00Z,26.4679,-82.0631,2.053,32.93,1111122 
SCCF RECON,ioos:station:SCCF:11:1,2011-09-07T12:00:00Z,26.4679,-82.0631,2.14,31.99,1111122 
SCCF RECON,ioos:station:SCCF:11:1,2011-09-07T13:00:00Z,26.4679,-82.0631,2.14,32.39,1111122 
SCCF RECON,ioos:station:SCCF:11:1,2011-09-07T14:00:00Z,26.4679,-82.0631,2.12,32.35,1111122 
SCCF RECON,ioos:station:SCCF:11:1,2011-09-07T15:00:00Z,26.4679,-82.0631,2.046,32.13,1111122 
SCCF RECON,ioos:station:SCCF:11:1,2011-09-07T16:00:00Z,26.4679,-82.0631,1.98,31.78,1111122 
SCCF RECON,ioos:station:SCCF:11:1,2011-09-07T17:00:00Z,26.4679,-82.0631,1.865,31.6,1111122 
SCCF RECON,ioos:station:SCCF:11:1,2011-09-07T18:00:00Z,26.4679,-82.0631,1.742,31.56,1111122 
SCCF RECON,ioos:station:SCCF:11:1,2011-09-07T19:00:00Z,26.4679,-82.0631,1.645,31.45,1111122 
SCCF RECON,ioos:station:SCCF:11:1,2011-09-07T20:00:00Z,26.4679,-82.0631,1.477,31.5,1111122 
SCCF RECON,ioos:station:SCCF:11:1,2011-09-07T21:00:00Z,26.4679,-82.0631,1.46,31.14,1111122 
SCCF RECON,ioos:station:SCCF:11:1,2011-09-07T22:00:00Z,26.4679,-82.0631,1.48,31.41,1111122 
SCCF RECON,ioos:station:SCCF:11:1,2011-09-07T23:00:00Z,26.4679,-82.0631,1.53,31.5,1111122 
SCCF RECON,ioos:station:SCCF:11:1,2011-09-08T00:00:00Z,26.4679,-82.0631,1.639,32.78,1111122 
SCCF RECON,ioos:station:SCCF:11:1,2011-09-08T01:00:00Z,26.4679,-82.0631,1.777,27.67,1111122 
SCCF RECON,ioos:station:SCCF:11:1,2011-09-08T02:00:00Z,26.4679,-82.0631,1.854,28.18,1111122 
SCCF RECON,ioos:station:SCCF:11:1,2011-09-08T03:00:00Z,26.4679,-82.0631,1.93,29.72,1111122 
SCCF RECON,ioos:station:SCCF:11:1,2011-09-08T04:00:00Z,26.4679,-82.0631,1.96,31.0,1111122 
SCCF RECON,ioos:station:SCCF:11:1,2011-09-08T05:00:00Z,26.4679,-82.0631,1.94,31.44,1111122 
SCCF RECON,ioos:station:SCCF:11:1,2011-09-08T06:00:00Z,26.4679,-82.0631,1.869,30.91,1111122 
SCCF RECON,ioos:station:SCCF:11:1,2011-09-08T07:00:00Z,26.4679,-82.0631,1.79,30.25,1111122 
SCCF RECON,ioos:station:SCCF:11:1,2011-09-08T08:00:00Z,26.4679,-82.0631,1.73,30.75,1111122 
SCCF RECON,ioos:station:SCCF:11:1,2011-09-08T09:00:00Z,26.4679,-82.0631,1.7,30.36,1111122 
SCCF RECON,ioos:station:SCCF:11:1,2011-09-08T10:00:00Z,26.4679,-82.0631,1.731,30.51,1111122 
SCCF RECON,ioos:station:SCCF:11:1,2011-09-08T11:00:00Z,26.4679,-82.0631,1.836,30.1,1111122 
SCCF RECON,ioos:station:SCCF:11:1,2011-09-08T12:00:00Z,26.4679,-82.0631,1.921,30.2,1111122 
SCCF RECON,ioos:station:SCCF:11:1,2011-09-08T13:00:00Z,26.4679,-82.0631,2.01,30.76,1111122 
SCCF RECON,ioos:station:SCCF:11:1,2011-09-08T14:00:00Z,26.4679,-82.0631,2.08,31.26,1111122 
SCCF RECON,ioos:station:SCCF:11:1,2011-09-08T15:00:00Z,26.4679,-82.0631,2.11,30.65,1111122 
SCCF RECON,ioos:station:SCCF:11:1,2011-09-08T16:00:00Z,26.4679,-82.0631,2.084,31.19,1111122 
SCCF RECON,ioos:station:SCCF:11:1,2011-09-08T17:00:00Z,26.4679,-82.0631,1.986,29.61,1111122 
SCCF RECON,ioos:station:SCCF:11:1,2011-09-08T18:00:00Z,26.4679,-82.0631,1.85,30.17,1111122 
SCCF RECON,ioos:station:SCCF:11:1,2011-09-08T19:00:00Z,26.4679,-82.0631,1.709,30.34,1111122 
SCCF RECON,ioos:station:SCCF:11:1,2011-09-08T20:00:00Z,26.4679,-82.0631,1.586,30.4,1111122 
SCCF RECON,ioos:station:SCCF:11:1,2011-09-08T21:00:00Z,26.4679,-82.0631,1.507,30.46,1111122 
SCCF RECON,ioos:station:SCCF:11:1,2011-09-08T22:00:00Z,26.4679,-82.0631,1.44,30.44,1111122 
SCCF RECON,ioos:station:SCCF:11:1,2011-09-08T23:00:00Z,26.4679,-82.0631,1.47,30.71,1111122 
SCCF RECON,ioos:station:SCCF:11:1,2011-09-09T00:00:00Z,26.4679,-82.0631,1.58,30.77,1111122 
SCCF RECON,ioos:station:SCCF:11:1,2011-09-09T01:00:00Z,26.4679,-82.0631,1.71,29.78,1111122 
SCCF RECON,ioos:station:SCCF:11:1,2011-09-09T02:00:00Z,26.4679,-82.0631,1.76,28.02,1111122 
SCCF RECON,ioos:station:SCCF:11:1,2011-09-09T03:00:00Z,26.4679,-82.0631,1.84,28.66,1111122 
SCCF RECON,ioos:station:SCCF:11:1,2011-09-09T04:00:00Z,26.4679,-82.0631,1.91,27.13,1111122 
SCCF RECON,ioos:station:SCCF:11:1,2011-09-09T05:00:00Z,26.4679,-82.0631,1.93,28.02,1111122 
SCCF RECON,ioos:station:SCCF:11:1,2011-09-09T06:00:00Z,26.4679,-82.0631,1.88,28.81,1111122 
SCCF RECON,ioos:station:SCCF:11:1,2011-09-09T07:00:00Z,26.4679,-82.0631,1.76,29.23,1111122 
SCCF RECON,ioos:station:SCCF:11:1,2011-09-09T08:00:00Z,26.4679,-82.0631,1.65,30.02,1111122 
SCCF RECON,ioos:station:SCCF:11:1,2011-09-09T09:00:00Z,26.4679,-82.0631,1.58,30.23,1111122 
SCCF RECON,ioos:station:SCCF:11:1,2011-09-09T10:00:00Z,26.4679,-82.0631,1.54,30.07,1111122 
SCCF RECON,ioos:station:SCCF:11:1,2011-09-09T11:00:00Z,26.4679,-82.0631,1.6,30.35,1111122 
SCCF RECON,ioos:station:SCCF:11:1,2011-09-09T12:00:00Z,26.4679,-82.0631,1.747,28.96,1111122 
SCCF RECON,ioos:station:SCCF:11:1,2011-09-09T13:00:00Z,26.4679,-82.0631,1.87,26.56,1111122 
SCCF RECON,ioos:station:SCCF:11:1,2011-09-09T14:00:00Z,26.4679,-82.0631,1.956,25.84,1111122 
SCCF RECON,ioos:station:SCCF:11:1,2011-09-09T15:00:00Z,26.4679,-82.0631,2.04,27.86,1111122 
SCCF RECON,ioos:station:SCCF:11:1,2011-09-09T16:00:00Z,26.4679,-82.0631,2.073,28.94,1111122 
SCCF RECON,ioos:station:SCCF:11:1,2011-09-09T17:00:00Z,26.4679,-82.0631,2.035,29.49,1111122 
SCCF RECON,ioos:station:SCCF:11:1,2011-09-09T18:00:00Z,26.4679,-82.0631,1.92,27.55,1111122 
SCCF RECON,ioos:station:SCCF:11:1,2011-09-09T19:00:00Z,26.4679,-82.0631,1.77,28.54,1111122 
SCCF RECON,ioos:station:SCCF:11:1,2011-09-09T20:00:00Z,26.4679,-82.0631,1.64,28.8,1111122 
SCCF RECON,ioos:station:SCCF:11:1,2011-09-09T21:00:00Z,26.4679,-82.0631,1.53,29.24,1111122 
SCCF RECON,ioos:station:SCCF:11:1,2011-09-09T22:00:00Z,26.4679,-82.0631,1.471,29.54,1111122 
SCCF RECON,ioos:station:SCCF:11:1,2011-09-09T23:00:00Z,26.4679,-82.0631,1.431,29.61,1111122 
SCCF RECON,ioos:station:SCCF:11:1,2011-09-10T00:00:00Z,26.4679,-82.0631,1.43,29.81,1111122 
SCCF RECON,ioos:station:SCCF:11:1,2011-09-10T01:00:00Z,26.4679,-82.0631,1.512,29.72,1111122 
SCCF RECON,ioos:station:SCCF:11:1,2011-09-10T02:00:00Z,26.4679,-82.0631,1.679,29.25,1111122 
SCCF RECON,ioos:station:SCCF:11:1,2011-09-10T03:00:00Z,26.4679,-82.0631,1.81,24.93,1111122 
SCCF RECON,ioos:station:SCCF:11:1,2011-09-10T04:00:00Z,26.4679,-82.0631,1.89,24.58,1111122 
SCCF RECON,ioos:station:SCCF:11:1,2011-09-10T05:00:00Z,26.4679,-82.0631,1.93,25.15,1111122 
SCCF RECON,ioos:station:SCCF:11:1,2011-09-10T06:00:00Z,26.4679,-82.0631,1.892,25.98,1111122 
SCCF RECON,ioos:station:SCCF:11:1,2011-09-10T07:00:00Z,26.4679,-82.0631,1.77,27.0,1111122 
SCCF RECON,ioos:station:SCCF:11:1,2011-09-10T08:00:00Z,26.4679,-82.0631,1.65,28.27,1111122 
SCCF RECON,ioos:station:SCCF:11:1,2011-09-10T09:00:00Z,26.4679,-82.0631,1.57,28.32,1111122 
SCCF RECON,ioos:station:SCCF:11:1,2011-09-10T10:00:00Z,26.4679,-82.0631,1.51,27.82,1111122 
SCCF RECON,ioos:station:SCCF:11:1,2011-09-10T11:00:00Z,26.4679,-82.0631,1.53,29.34,1111122 
SCCF RECON,ioos:station:SCCF:11:1,2011-09-10T12:00:00Z,26.4679,-82.0631,1.65,28.6,1111122 
SCCF RECON,ioos:station:SCCF:11:1,2011-09-10T13:00:00Z,26.4679,-82.0631,1.81,26.69,1111122 
SCCF RECON,ioos:station:SCCF:11:1,2011-09-10T14:00:00Z,26.4679,-82.0631,1.94,24.37,1111122 
SCCF RECON,ioos:station:SCCF:11:1,2011-09-10T15:00:00Z,26.4679,-82.0631,2.025,25.33,1111122 
SCCF RECON,ioos:station:SCCF:11:1,2011-09-10T16:00:00Z,26.4679,-82.0631,2.08,27.25,1111122 
SCCF RECON,ioos:station:SCCF:11:1,2011-09-10T17:00:00Z,26.4679,-82.0631,2.09,27.76,1111122 
SCCF RECON,ioos:station:SCCF:11:1,2011-09-10T18:00:00Z,26.4679,-82.0631,2.02,27.88,1111122 
SCCF RECON,ioos:station:SCCF:11:1,2011-09-10T19:00:00Z,26.4679,-82.0631,1.87,26.5,1111122 
SCCF RECON,ioos:station:SCCF:11:1,2011-09-10T20:00:00Z,26.4679,-82.0631,1.74,27.08,1111122 
SCCF RECON,ioos:station:SCCF:11:1,2011-09-10T21:00:00Z,26.4679,-82.0631,1.599,27.52,1111122 
SCCF RECON,ioos:station:SCCF:11:1,2011-09-10T22:00:00Z,26.4679,-82.0631,1.477,28.12,1111122 
SCCF RECON,ioos:station:SCCF:11:1,2011-09-10T23:00:00Z,26.4679,-82.0631,1.38,28.27,1111122 
SCCF RECON,ioos:station:SCCF:11:1,2011-09-11T00:00:00Z,26.4679,-82.0631,1.399,28.34,1111122 
SCCF RECON,ioos:station:SCCF:11:1,2011-09-11T01:00:00Z,26.4679,-82.0631,1.539,28.51,1111122 
SCCF RECON,ioos:station:SCCF:11:1,2011-09-11T02:00:00Z,26.4679,-82.0631,1.71,28.29,1111122 
SCCF RECON,ioos:station:SCCF:11:1,2011-09-11T03:00:00Z,26.4679,-82.0631,1.829,24.92,1111122 
SCCF RECON,ioos:station:SCCF:11:1,2011-09-11T04:00:00Z,26.4679,-82.0631,1.894,25.96,1111122 
SCCF RECON,ioos:station:SCCF:11:1,2011-09-11T05:00:00Z,26.4679,-82.0631,1.95,26.21,1111122 
SCCF RECON,ioos:station:SCCF:11:1,2011-09-11T06:00:00Z,26.4679,-82.0631,1.96,26.38,1111122 
SCCF RECON,ioos:station:SCCF:11:1,2011-09-11T07:00:00Z,26.4679,-82.0631,1.859,26.76,1111122 
SCCF RECON,ioos:station:SCCF:11:1,2011-09-11T08:00:00Z,26.4679,-82.0631,1.72,27.43,1111122 
SCCF RECON,ioos:station:SCCF:11:1,2011-09-11T09:00:00Z,26.4679,-82.0631,1.63,27.93,1111122 
SCCF RECON,ioos:station:SCCF:11:1,2011-09-11T10:00:00Z,26.4679,-82.0631,1.56,28.02,1111122 
SCCF RECON,ioos:station:SCCF:11:1,2011-09-11T11:00:00Z,26.4679,-82.0631,1.49,28.02,1111122 
SCCF RECON,ioos:station:SCCF:11:1,2011-09-11T12:00:00Z,26.4679,-82.0631,1.51,28.51,1111122 
SCCF RECON,ioos:station:SCCF:11:1,2011-09-11T13:00:00Z,26.4679,-82.0631,1.64,28.21,1111122 
SCCF RECON,ioos:station:SCCF:11:1,2011-09-11T14:00:00Z,26.4679,-82.0631,1.83,26.01,1111122 
SCCF RECON,ioos:station:SCCF:11:1,2011-09-11T15:00:00Z,26.4679,-82.0631,1.97,24.33,1111122 
SCCF RECON,ioos:station:SCCF:11:1,2011-09-11T16:00:00Z,26.4679,-82.0631,2.053,25.43,1111122 
SCCF RECON,ioos:station:SCCF:11:1,2011-09-11T17:00:00Z,26.4679,-82.0631,2.109,25.7,1111122 
SCCF RECON,ioos:station:SCCF:11:1,2011-09-11T18:00:00Z,26.4679,-82.0631,2.09,27.26,1111122 